Time,TemperatureF,DewpointF,PressureIn,WindDirection,WindDirectionDegrees,WindSpeedMPH,WindSpeedGustMPH,Humidity,HourlyPrecipIn,Conditions,Clouds,dailyrainin,SolarRadiationWatts/m^2,SoftwareType,DateUTC
2013-05-18 00:02:00,80.0,13.0,29.93,WSW,254,17.0,27.0,7,-99.99,,,-99.99,0.000000,,2013-05-18 06:02:00,
2013-05-18 00:11:00,80.0,11.0,29.93,West,261,16.0,26.0,7,-99.99,,,-99.99,0.000000,,2013-05-18 06:11:00,
2013-05-18 00:22:00,80.0,11.0,29.93,West,261,16.0,26.0,7,-99.99,,,-99.99,0.000000,,2013-05-18 06:22:00,
2013-05-18 00:32:00,80.0,12.0,29.93,West,259,16.0,27.0,7,-99.99,,,-99.99,0.000000,,2013-05-18 06:32:00,
2013-05-18 00:42:00,79.0,13.0,29.93,West,260,16.0,28.0,8,-99.99,,,-99.99,0.000000,,2013-05-18 06:42:00,
2013-05-18 00:52:00,79.0,13.0,29.93,West,260,16.0,28.0,8,-99.99,,,-99.99,0.000000,,2013-05-18 06:52:00,
2013-05-18 01:01:00,79.0,14.0,29.93,West,265,17.0,29.0,8,-99.99,,,-99.99,0.000000,,2013-05-18 07:01:00,
2013-05-18 01:11:00,78.0,16.0,29.93,West,262,17.0,32.0,9,-99.99,,,-99.99,0.000000,,2013-05-18 07:11:00,
2013-05-18 01:21:00,78.0,16.0,29.93,West,262,17.0,32.0,9,-99.99,,,-99.99,0.000000,,2013-05-18 07:21:00,
2013-05-18 01:31:00,78.0,15.0,29.92,West,265,16.0,29.0,9,-99.99,,,-99.99,0.000000,,2013-05-18 07:31:00,
2013-05-18 01:42:00,78.0,15.0,29.92,West,270,17.0,28.0,8,-99.99,,,-99.99,0.000000,,2013-05-18 07:42:00,
2013-05-18 01:52:00,78.0,15.0,29.92,West,270,17.0,28.0,8,-99.99,,,-99.99,0.000000,,2013-05-18 07:52:00,
2013-05-18 02:01:00,78.0,14.0,29.92,West,269,17.0,28.0,8,-99.99,,,-99.99,0.000000,,2013-05-18 08:01:00,
2013-05-18 02:11:00,77.0,16.0,29.92,West,268,15.0,27.0,9,-99.99,,,-99.99,0.000000,,2013-05-18 08:11:00,
2013-05-18 02:21:00,77.0,16.0,29.92,West,268,15.0,27.0,9,-99.99,,,-99.99,0.000000,,2013-05-18 08:21:00,
2013-05-18 02:32:00,77.0,16.0,29.92,West,269,16.0,28.0,9,-99.99,,,-99.99,0.000000,,2013-05-18 08:32:00,
2013-05-18 02:42:00,77.0,16.0,29.91,West,266,18.0,32.0,9,-99.99,,,-99.99,0.000000,,2013-05-18 08:42:00,
2013-05-18 02:52:00,77.0,16.0,29.91,West,266,18.0,32.0,9,-99.99,,,-99.99,0.000000,,2013-05-18 08:52:00,
2013-05-18 03:02:00,77.0,16.0,29.91,West,266,18.0,32.0,9,-99.99,,,-99.99,0.000000,,2013-05-18 09:02:00,
2013-05-18 03:11:00,77.0,17.0,29.91,West,263,21.0,35.0,10,-99.99,,,-99.99,0.000000,,2013-05-18 09:11:00,
2013-05-18 03:22:00,77.0,17.0,29.91,West,263,21.0,35.0,10,-99.99,,,-99.99,0.000000,,2013-05-18 09:22:00,
2013-05-18 03:33:00,77.0,18.0,29.90,West,262,21.0,34.0,10,-99.99,,,-99.99,0.000000,,2013-05-18 09:33:00,
2013-05-18 03:43:00,77.0,17.0,29.91,West,262,21.0,36.0,10,-99.99,,,-99.99,0.000000,,2013-05-18 09:43:00,
2013-05-18 03:53:00,77.0,17.0,29.91,West,262,21.0,36.0,10,-99.99,,,-99.99,0.000000,,2013-05-18 09:53:00,
2013-05-18 04:03:00,77.0,18.0,29.91,West,261,21.0,36.0,10,-99.99,,,-99.99,0.000000,,2013-05-18 10:03:00,
2013-05-18 04:12:00,76.0,18.0,29.91,West,262,19.0,35.0,10,-99.99,,,-99.99,0.000000,,2013-05-18 10:12:00,
2013-05-18 04:23:00,76.0,18.0,29.91,West,262,19.0,35.0,10,-99.99,,,-99.99,0.000000,,2013-05-18 10:23:00,
2013-05-18 04:33:00,76.0,18.0,29.92,West,261,20.0,33.0,11,-99.99,,,-99.99,0.000000,,2013-05-18 10:33:00,
2013-05-18 04:42:00,76.0,18.0,29.92,West,260,20.0,36.0,11,-99.99,,,-99.99,0.000000,,2013-05-18 10:42:00,
2013-05-18 04:53:00,76.0,18.0,29.92,West,260,20.0,36.0,11,-99.99,,,-99.99,0.000000,,2013-05-18 10:53:00,
2013-05-18 05:03:00,76.0,18.0,29.92,West,265,16.0,30.0,11,-99.99,,,-99.99,0.000000,,2013-05-18 11:03:00,
2013-05-18 05:12:00,76.0,18.0,29.93,West,264,14.0,26.0,11,-99.99,,,-99.99,0.000000,,2013-05-18 11:12:00,
2013-05-18 05:22:00,76.0,18.0,29.93,West,264,14.0,26.0,11,-99.99,,,-99.99,0.000000,,2013-05-18 11:22:00,
2013-05-18 05:33:00,76.0,18.0,29.93,WSW,256,15.0,28.0,11,-99.99,,,-99.99,0.000000,,2013-05-18 11:33:00,
2013-05-18 05:42:00,76.0,18.0,29.94,West,265,13.0,26.0,11,-99.99,,,-99.99,0.000000,,2013-05-18 11:42:00,
2013-05-18 05:52:00,76.0,18.0,29.94,West,265,13.0,26.0,11,-99.99,,,-99.99,0.000000,,2013-05-18 11:52:00,
2013-05-18 06:01:00,76.0,19.0,29.95,West,259,12.0,27.0,11,-99.99,,,-99.99,0.000000,,2013-05-18 12:01:00,
2013-05-18 06:12:00,75.0,19.0,29.95,West,267,10.0,20.0,11,-99.99,,,-99.99,0.000000,,2013-05-18 12:12:00,
2013-05-18 06:23:00,75.0,19.0,29.95,West,267,10.0,20.0,11,-99.99,,,-99.99,0.000000,,2013-05-18 12:23:00,
2013-05-18 06:33:00,75.0,19.0,29.95,West,279,9.0,22.0,11,-99.99,,,-99.99,0.700000,,2013-05-18 12:33:00,
2013-05-18 06:42:00,75.0,18.0,29.96,WNW,286,12.0,20.0,11,-99.99,,,-99.99,6.280000,,2013-05-18 12:42:00,
2013-05-18 06:52:00,75.0,18.0,29.96,WNW,286,12.0,20.0,11,-99.99,,,-99.99,6.280000,,2013-05-18 12:52:00,
2013-05-18 07:01:00,75.0,18.0,29.97,WNW,289,14.0,22.0,11,-99.99,,,-99.99,15.340000,,2013-05-18 13:01:00,
2013-05-18 07:11:00,74.0,19.0,29.98,WNW,292,12.0,20.0,12,-99.99,,,-99.99,22.309999,,2013-05-18 13:11:00,
2013-05-18 07:21:00,74.0,19.0,29.98,WNW,292,12.0,20.0,12,-99.99,,,-99.99,22.309999,,2013-05-18 13:21:00,
2013-05-18 07:33:00,74.0,20.0,29.98,WNW,291,13.0,19.0,12,-99.99,,,-99.99,34.169998,,2013-05-18 13:33:00,
2013-05-18 07:43:00,74.0,20.0,29.99,WNW,293,13.0,23.0,13,-99.99,,,-99.99,71.129997,,2013-05-18 13:43:00,
2013-05-18 07:53:00,74.0,20.0,29.99,WNW,293,13.0,23.0,13,-99.99,,,-99.99,71.129997,,2013-05-18 13:53:00,
2013-05-18 08:03:00,75.0,21.0,29.99,WNW,294,16.0,25.0,12,-99.99,,,-99.99,245.460007,,2013-05-18 14:03:00,
2013-05-18 08:12:00,77.0,21.0,29.99,WNW,296,16.0,26.0,12,-99.99,,,-99.99,320.079987,,2013-05-18 14:12:00,
2013-05-18 08:22:00,77.0,21.0,29.99,WNW,296,16.0,26.0,12,-99.99,,,-99.99,320.079987,,2013-05-18 14:22:00,
2013-05-18 08:32:00,77.0,21.0,29.99,WNW,295,16.0,23.0,12,-99.99,,,-99.99,288.000000,,2013-05-18 14:32:00,
2013-05-18 08:42:00,77.0,22.0,30.00,NW,304,15.0,23.0,12,-99.99,,,-99.99,444.899994,,2013-05-18 14:42:00,
2013-05-18 08:54:00,77.0,22.0,30.00,NW,304,15.0,23.0,12,-99.99,,,-99.99,444.899994,,2013-05-18 14:54:00,
2013-05-18 09:03:00,78.0,22.0,30.00,WNW,303,13.0,20.0,12,-99.99,,,-99.99,484.649994,,2013-05-18 15:03:00,
2013-05-18 09:13:00,78.0,22.0,30.00,NW,304,15.0,24.0,12,-99.99,,,-99.99,475.579987,,2013-05-18 15:13:00,
2013-05-18 09:23:00,78.0,22.0,30.00,NW,304,15.0,24.0,12,-99.99,,,-99.99,475.579987,,2013-05-18 15:23:00,
2013-05-18 09:33:00,78.0,23.0,30.00,WNW,297,16.0,26.0,12,-99.99,,,-99.99,578.789978,,2013-05-18 15:33:00,
2013-05-18 09:43:00,78.0,23.0,30.01,WNW,285,17.0,28.0,12,-99.99,,,-99.99,612.260010,,2013-05-18 15:43:00,
2013-05-18 09:53:00,78.0,23.0,30.01,WNW,285,17.0,28.0,12,-99.99,,,-99.99,612.260010,,2013-05-18 15:53:00,
2013-05-18 10:02:00,78.0,23.0,30.01,WNW,295,16.0,28.0,12,-99.99,,,-99.99,681.989990,,2013-05-18 16:02:00,
2013-05-18 10:13:00,79.0,25.0,30.00,WNW,290,19.0,29.0,13,-99.99,,,-99.99,765.669983,,2013-05-18 16:13:00,
2013-05-18 10:22:00,79.0,25.0,30.00,WNW,290,19.0,29.0,13,-99.99,,,-99.99,765.669983,,2013-05-18 16:22:00,
2013-05-18 10:33:00,79.0,25.0,30.00,WNW,292,15.0,25.0,13,-99.99,,,-99.99,720.349976,,2013-05-18 16:33:00,
2013-05-18 10:42:00,80.0,24.0,30.00,WNW,301,16.0,26.0,12,-99.99,,,-99.99,825.640015,,2013-05-18 16:42:00,
2013-05-18 10:52:00,80.0,24.0,30.00,WNW,301,16.0,26.0,12,-99.99,,,-99.99,825.640015,,2013-05-18 16:52:00,
2013-05-18 11:02:00,80.0,24.0,30.00,WNW,303,18.0,30.0,12,-99.99,,,-99.99,885.609985,,2013-05-18 17:02:00,
2013-05-18 11:12:00,81.0,24.0,29.99,WNW,292,16.0,28.0,12,-99.99,,,-99.99,878.640015,,2013-05-18 17:12:00,
2013-05-18 11:22:00,81.0,24.0,29.99,WNW,292,16.0,28.0,12,-99.99,,,-99.99,878.640015,,2013-05-18 17:22:00,
2013-05-18 11:32:00,81.0,24.0,29.99,WNW,294,16.0,26.0,12,-99.99,,,-99.99,873.059998,,2013-05-18 17:32:00,
2013-05-18 11:42:00,81.0,25.0,29.99,WNW,291,16.0,30.0,12,-99.99,,,-99.99,926.059998,,2013-05-18 17:42:00,
2013-05-18 11:52:00,81.0,25.0,29.99,WNW,291,16.0,30.0,12,-99.99,,,-99.99,926.059998,,2013-05-18 17:52:00,
2013-05-18 12:01:00,81.0,24.0,29.99,WNW,290,16.0,26.0,12,-99.99,,,-99.99,908.630005,,2013-05-18 18:01:00,
2013-05-18 12:12:00,82.0,24.0,29.98,WNW,288,12.0,23.0,12,-99.99,,,-99.99,949.770020,,2013-05-18 18:12:00,
2013-05-18 12:21:00,82.0,24.0,29.98,WNW,288,12.0,23.0,12,-99.99,,,-99.99,949.770020,,2013-05-18 18:21:00,
2013-05-18 12:32:00,82.0,24.0,29.98,West,270,13.0,29.0,11,-99.99,,,-99.99,961.619995,,2013-05-18 18:32:00,
2013-05-18 12:42:00,82.0,24.0,29.97,WNW,287,15.0,33.0,11,-99.99,,,-99.99,976.270020,,2013-05-18 18:42:00,
2013-05-18 12:52:00,82.0,24.0,29.97,WNW,287,15.0,33.0,11,-99.99,,,-99.99,976.270020,,2013-05-18 18:52:00,
2013-05-18 13:02:00,83.0,23.0,29.97,WNW,285,15.0,33.0,11,-99.99,,,-99.99,986.030029,,2013-05-18 19:02:00,
2013-05-18 13:12:00,83.0,21.0,29.97,WNW,289,14.0,25.0,10,-99.99,,,-99.99,991.609985,,2013-05-18 19:12:00,
2013-05-18 13:22:00,83.0,21.0,29.97,WNW,289,14.0,25.0,10,-99.99,,,-99.99,991.609985,,2013-05-18 19:22:00,
2013-05-18 13:32:00,83.0,22.0,29.96,WNW,289,14.0,27.0,10,-99.99,,,-99.99,991.609985,,2013-05-18 19:32:00,
2013-05-18 13:42:00,83.0,21.0,29.96,WNW,292,13.0,29.0,10,-99.99,,,-99.99,991.609985,,2013-05-18 19:42:00,
2013-05-18 13:52:00,83.0,21.0,29.96,WNW,292,13.0,29.0,10,-99.99,,,-99.99,991.609985,,2013-05-18 19:52:00,
2013-05-18 14:02:00,83.0,21.0,29.96,WNW,292,13.0,29.0,10,-99.99,,,-99.99,991.609985,,2013-05-18 20:02:00,
2013-05-18 14:11:00,84.0,22.0,29.94,West,270,8.0,21.0,10,-99.99,,,-99.99,974.869995,,2013-05-18 20:11:00,
2013-05-18 14:22:00,84.0,22.0,29.94,West,270,8.0,21.0,10,-99.99,,,-99.99,974.869995,,2013-05-18 20:22:00,
2013-05-18 14:32:00,84.0,22.0,29.94,WSW,246,8.0,18.0,10,-99.99,,,-99.99,960.229980,,2013-05-18 20:32:00,
2013-05-18 14:42:00,84.0,22.0,29.93,West,264,8.0,22.0,9,-99.99,,,-99.99,942.099976,,2013-05-18 20:42:00,
2013-05-18 14:52:00,84.0,22.0,29.93,West,264,8.0,22.0,9,-99.99,,,-99.99,942.099976,,2013-05-18 20:52:00,
2013-05-18 15:01:00,85.0,21.0,29.92,WSW,251,12.0,25.0,9,-99.99,,,-99.99,926.059998,,2013-05-18 21:01:00,
2013-05-18 15:12:00,85.0,19.0,29.92,WNW,300,15.0,37.0,8,-99.99,,,-99.99,901.650024,,2013-05-18 21:12:00,
2013-05-18 15:21:00,85.0,19.0,29.92,WNW,300,15.0,37.0,8,-99.99,,,-99.99,901.650024,,2013-05-18 21:21:00,
2013-05-18 15:32:00,85.0,21.0,29.91,West,261,13.0,29.0,9,-99.99,,,-99.99,877.940002,,2013-05-18 21:32:00,
2013-05-18 15:43:00,85.0,21.0,29.91,WNW,283,14.0,29.0,9,-99.99,,,-99.99,845.169983,,2013-05-18 21:43:00,
2013-05-18 15:53:00,85.0,21.0,29.91,WNW,283,14.0,29.0,9,-99.99,,,-99.99,845.169983,,2013-05-18 21:53:00,
2013-05-18 16:03:00,85.0,19.0,29.90,WNW,283,15.0,35.0,8,-99.99,,,-99.99,813.789978,,2013-05-18 22:03:00,
2013-05-18 16:12:00,86.0,18.0,29.89,WNW,283,16.0,47.0,8,-99.99,,,-99.99,781.710022,,2013-05-18 22:12:00,
2013-05-18 16:23:00,86.0,18.0,29.89,WNW,283,16.0,47.0,8,-99.99,,,-99.99,781.710022,,2013-05-18 22:23:00,
2013-05-18 16:33:00,85.0,18.0,29.89,West,276,15.0,40.0,8,-99.99,,,-99.99,738.479980,,2013-05-18 22:33:00,
2013-05-18 16:42:00,86.0,19.0,29.88,West,268,9.0,28.0,8,-99.99,,,-99.99,687.570007,,2013-05-18 22:42:00,
2013-05-18 16:53:00,86.0,19.0,29.88,West,268,9.0,28.0,8,-99.99,,,-99.99,687.570007,,2013-05-18 22:53:00,
2013-05-18 17:01:00,86.0,17.0,29.87,WSW,253,11.0,30.0,7,-99.99,,,-99.99,654.099976,,2013-05-18 23:01:00,
2013-05-18 17:12:00,86.0,17.0,29.86,West,259,13.0,26.0,7,-99.99,,,-99.99,595.520020,,2013-05-18 23:12:00,
2013-05-18 17:22:00,86.0,17.0,29.86,West,259,13.0,26.0,7,-99.99,,,-99.99,595.520020,,2013-05-18 23:22:00,
2013-05-18 17:32:00,86.0,14.0,29.85,WNW,294,20.0,40.0,6,-99.99,,,-99.99,563.450012,,2013-05-18 23:32:00,
2013-05-18 17:41:00,86.0,13.0,29.85,WNW,292,17.0,36.0,6,-99.99,,,-99.99,512.539978,,2013-05-18 23:41:00,
2013-05-18 17:53:00,86.0,13.0,29.85,WNW,292,17.0,36.0,6,-99.99,,,-99.99,512.539978,,2013-05-18 23:53:00,
2013-05-18 18:01:00,86.0,10.0,29.85,West,269,12.0,37.0,5,-99.99,,,-99.99,463.029999,,2013-05-19 00:01:00,
2013-05-18 18:11:00,86.0,9.0,29.84,WNW,295,24.0,39.0,5,-99.99,,,-99.99,414.910004,,2013-05-19 00:11:00,
2013-05-18 18:21:00,86.0,9.0,29.84,WNW,295,24.0,39.0,5,-99.99,,,-99.99,414.910004,,2013-05-19 00:21:00,
2013-05-18 18:32:00,85.0,8.0,29.84,WNW,294,21.0,49.0,5,-99.99,,,-99.99,352.850006,,2013-05-19 00:32:00,
2013-05-18 18:41:00,85.0,8.0,29.84,WNW,284,18.0,45.0,5,-99.99,,,-99.99,304.040009,,2013-05-19 00:41:00,
2013-05-18 18:52:00,85.0,8.0,29.84,WNW,284,18.0,45.0,5,-99.99,,,-99.99,304.040009,,2013-05-19 00:52:00,
2013-05-18 19:01:00,84.0,10.0,29.84,West,274,16.0,32.0,6,-99.99,,,-99.99,253.830002,,2013-05-19 01:01:00,
2013-05-18 19:11:00,84.0,13.0,29.84,WNW,287,19.0,41.0,6,-99.99,,,-99.99,203.619995,,2013-05-19 01:11:00,
2013-05-18 19:21:00,84.0,13.0,29.84,WNW,287,19.0,41.0,6,-99.99,,,-99.99,203.619995,,2013-05-19 01:21:00,
2013-05-18 19:32:00,84.0,14.0,29.84,WNW,285,21.0,39.0,7,-99.99,,,-99.99,156.199997,,2013-05-19 01:32:00,
2013-05-18 19:42:00,83.0,15.0,29.85,West,280,19.0,34.0,7,-99.99,,,-99.99,107.389999,,2013-05-19 01:42:00,
2013-05-18 19:52:00,83.0,15.0,29.85,West,280,19.0,34.0,7,-99.99,,,-99.99,107.389999,,2013-05-19 01:52:00,
2013-05-18 20:01:00,82.0,15.0,29.85,West,274,18.0,39.0,7,-99.99,,,-99.99,56.480000,,2013-05-19 02:01:00,
2013-05-18 20:11:00,82.0,14.0,29.85,WNW,282,19.0,39.0,7,-99.99,,,-99.99,20.219999,,2013-05-19 02:11:00,
2013-05-18 20:21:00,82.0,14.0,29.85,WNW,282,19.0,39.0,7,-99.99,,,-99.99,20.219999,,2013-05-19 02:21:00,
2013-05-18 20:32:00,81.0,13.0,29.85,WNW,289,19.0,34.0,7,-99.99,,,-99.99,9.070000,,2013-05-19 02:32:00,
2013-05-18 20:42:00,81.0,14.0,29.86,WNW,285,18.0,31.0,7,-99.99,,,-99.99,1.390000,,2013-05-19 02:42:00,
2013-05-18 20:52:00,81.0,14.0,29.86,WNW,285,18.0,31.0,7,-99.99,,,-99.99,1.390000,,2013-05-19 02:52:00,
2013-05-18 21:01:00,80.0,14.0,29.86,West,273,15.0,31.0,8,-99.99,,,-99.99,0.000000,,2013-05-19 03:01:00,
2013-05-18 21:11:00,80.0,14.0,29.87,West,281,14.0,30.0,8,-99.99,,,-99.99,0.000000,,2013-05-19 03:11:00,
2013-05-18 21:22:00,80.0,14.0,29.87,West,281,14.0,30.0,8,-99.99,,,-99.99,0.000000,,2013-05-19 03:22:00,
2013-05-18 21:33:00,80.0,14.0,29.87,WNW,284,15.0,26.0,8,-99.99,,,-99.99,0.000000,,2013-05-19 03:33:00,
2013-05-18 21:42:00,79.0,14.0,29.87,WNW,285,15.0,25.0,8,-99.99,,,-99.99,0.000000,,2013-05-19 03:42:00,
2013-05-18 21:53:00,79.0,14.0,29.87,WNW,285,15.0,25.0,8,-99.99,,,-99.99,0.000000,,2013-05-19 03:53:00,
2013-05-18 22:02:00,79.0,14.0,29.88,WNW,292,11.0,22.0,8,-99.99,,,-99.99,0.000000,,2013-05-19 04:02:00,
2013-05-18 22:12:00,78.0,14.0,29.88,WNW,294,13.0,23.0,8,-99.99,,,-99.99,0.000000,,2013-05-19 04:12:00,
2013-05-18 22:23:00,78.0,14.0,29.88,WNW,294,13.0,23.0,8,-99.99,,,-99.99,0.000000,,2013-05-19 04:23:00,
2013-05-18 22:33:00,78.0,15.0,29.89,WNW,286,12.0,24.0,9,-99.99,,,-99.99,0.000000,,2013-05-19 04:33:00,
2013-05-18 22:42:00,78.0,15.0,29.90,WNW,292,11.0,23.0,9,-99.99,,,-99.99,0.000000,,2013-05-19 04:42:00,
2013-05-18 22:53:00,78.0,15.0,29.90,WNW,292,11.0,23.0,9,-99.99,,,-99.99,0.000000,,2013-05-19 04:53:00,
2013-05-18 23:02:00,78.0,15.0,29.90,WNW,292,11.0,23.0,9,-99.99,,,-99.99,0.000000,,2013-05-19 05:02:00,
2013-05-18 23:12:00,77.0,16.0,29.90,West,281,14.0,28.0,9,-99.99,,,-99.99,0.000000,,2013-05-19 05:12:00,
2013-05-18 23:22:00,77.0,16.0,29.90,West,281,14.0,28.0,9,-99.99,,,-99.99,0.000000,,2013-05-19 05:22:00,
2013-05-18 23:32:00,77.0,16.0,29.90,WNW,287,15.0,27.0,9,-99.99,,,-99.99,0.000000,,2013-05-19 05:32:00,
2013-05-18 23:42:00,76.0,16.0,29.90,WNW,286,14.0,24.0,10,-99.99,,,-99.99,0.000000,,2013-05-19 05:42:00,
2013-05-18 23:52:00,76.0,16.0,29.90,WNW,286,14.0,24.0,10,-99.99,,,-99.99,0.000000,,2013-05-19 05:52:00,